When you browse on this site, cookies collect data to enhance your experience and personalize the content and advertising you see.
Visit our Privacy Policy to learn more. By continuing to use the site, you agree to this use of cookies and data.
  • In Spain
  • List of Countries
  • For 7 days
  • Water Temperature
  • Weather Map
  • Weather Widgets
  • user-avatar
    Login

    Hourly Weather Lorca

    Today, 20 January, Monday

    Time Temperature Precipitation Wind Pressure Humidity
    00:00 +1°C° 1.1 mm 14 mps 728 mmHg 86%
    01:00 +1°C° 3.9 mm 13 mps 728 mmHg 88%
    02:00 0°C° 3.9 mm 12 mps 728 mmHg 91%
    03:00 0°C° 3.9 mm 12 mps 728 mmHg 93%
    04:00 +1°C° 3.7 mm 10 mps 728 mmHg 93%
    05:00 +1°C° 3.7 mm 8 mps 728 mmHg 94%
    06:00 0°C° 3.7 mm 7 mps 728 mmHg 95%
    07:00 +2°C° 1.1 mm 6 mps 728 mmHg 94%
    08:00 +2°C° 1.1 mm 5 mps 728 mmHg 94%
    09:00 +4°C° 1.1 mm 4 mps 728 mmHg 93%
    10:00 +5°C° 0 mm 4 mps 728 mmHg 91%
    11:00 +6°C° 0 mm 4 mps 729 mmHg 89%
    12:00 +6°C° 0 mm 4 mps 729 mmHg 88%
    13:00 +7°C° 0.1 mm 5 mps 728 mmHg 87%
    14:00 +7°C° 0.1 mm 5 mps 728 mmHg 86%
    15:00 +7°C° 0.1 mm 5 mps 728 mmHg 85%
    16:00 +7°C° 1.2 mm 5 mps 728 mmHg 88%
    17:00 +7°C° 1.2 mm 5 mps 728 mmHg 91%
    18:00 +6°C° 1.2 mm 4 mps 728 mmHg 94%
    19:00 +6°C° 1.6 mm 4 mps 728 mmHg 95%
    20:00 +6°C° 1.6 mm 4 mps 728 mmHg 95%
    21:00 +7°C° 1.6 mm 3 mps 729 mmHg 96%
    22:00 +7°C° 1.7 mm 3 mps 728 mmHg 96%
    23:00 +7°C° 1.7 mm 3 mps 728 mmHg 95%

    Tomorrow, 21 January, Tuesday

    Time Temperature Precipitation Wind Pressure Humidity
    00:00 +7°C° 1.7 mm 3 mps 728 mmHg 95%
    01:00 +6°C° 2 mm 4 mps 727 mmHg 94%
    02:00 +6°C° 2 mm 4 mps 727 mmHg 94%
    03:00 +6°C° 2 mm 5 mps 726 mmHg 94%
    04:00 +6°C° 0.8 mm 5 mps 726 mmHg 93%
    05:00 +6°C° 0.8 mm 4 mps 725 mmHg 93%
    06:00 +6°C° 0.8 mm 4 mps 725 mmHg 92%
    07:00 +7°C° 2.7 mm 3 mps 725 mmHg 93%
    08:00 +7°C° 2.7 mm 3 mps 725 mmHg 94%
    09:00 +7°C° 2.7 mm 3 mps 726 mmHg 95%
    10:00 +7°C° 1.8 mm 2 mps 726 mmHg 94%
    11:00 +7°C° 1.8 mm 2 mps 726 mmHg 93%
    12:00 +7°C° 1.8 mm 2 mps 725 mmHg 92%
    13:00 +7°C° 0.2 mm 2 mps 726 mmHg 88%
    14:00 +9°C° 0.2 mm 1 mps 726 mmHg 84%
    15:00 +10°C° 0.2 mm 1 mps 726 mmHg 80%
    16:00 +9°C° 0.1 mm 1 mps 726 mmHg 83%
    17:00 +9°C° 0.1 mm 1 mps 727 mmHg 86%
    18:00 +8°C° 0.1 mm 1 mps 727 mmHg 89%
    19:00 +8°C° 0.2 mm 1 mps 728 mmHg 89%
    20:00 +8°C° 0.2 mm 1 mps 728 mmHg 89%
    21:00 +8°C° 0.2 mm 1 mps 729 mmHg 89%
    22:00 +8°C° 0.1 mm 1 mps 729 mmHg 90%
    23:00 +8°C° 0.1 mm 1 mps 729 mmHg 90%

    Day after tomorrow, 22 January, Wednesday

    Time Temperature Precipitation Wind Pressure Humidity
    00:00 +8°C° 0.1 mm 1 mps 729 mmHg 91%
    01:00 +7°C° 0.1 mm 2 mps 729 mmHg 92%
    02:00 +7°C° 0.1 mm 2 mps 729 mmHg 93%
    03:00 +7°C° 0.1 mm 2 mps 729 mmHg 94%
    04:00 +7°C° 0.1 mm 2 mps 729 mmHg 94%
    05:00 +6°C° 0.1 mm 2 mps 729 mmHg 94%
    06:00 +6°C° 0.1 mm 2 mps 729 mmHg 94%
    07:00 +7°C° 0.5 mm 2 mps 729 mmHg 93%
    08:00 +7°C° 0.5 mm 2 mps 730 mmHg 93%
    09:00 +8°C° 0.5 mm 2 mps 730 mmHg 92%
    10:00 +8°C° 1.1 mm 2 mps 730 mmHg 89%
    11:00 +8°C° 1.1 mm 3 mps 730 mmHg 86%
    12:00 +8°C° 1.1 mm 3 mps 730 mmHg 84%
    13:00 +9°C° 0.1 mm 2 mps 730 mmHg 80%
    14:00 +10°C° 0.1 mm 2 mps 729 mmHg 76%
    15:00 +10°C° 0.1 mm 2 mps 729 mmHg 73%
    16:00 +9°C° 0 mm 2 mps 729 mmHg 78%
    17:00 +9°C° 0 mm 1 mps 729 mmHg 84%
    18:00 +8°C° 0 mm 1 mps 730 mmHg 89%
    19:00 +8°C° 0 mm 1 mps 730 mmHg 90%
    20:00 +8°C° 0 mm 1 mps 731 mmHg 90%
    21:00 +8°C° 0 mm 1 mps 731 mmHg 90%
    22:00 +8°C° 0 mm 1 mps 731 mmHg 91%
    23:00 +8°C° 0 mm 1 mps 731 mmHg 91%

    23 January, Thursday

    Time Temperature Precipitation Wind Pressure Humidity
    00:00 +8°C° 0 mm 1 mps 731 mmHg 91%
    01:00 +8°C° 0 mm 1 mps 731 mmHg 92%
    02:00 +7°C° 0 mm 1 mps 731 mmHg 93%
    03:00 +7°C° 0 mm 1 mps 730 mmHg 94%
    04:00 +7°C° 0 mm 1 mps 730 mmHg 94%
    05:00 +7°C° 0 mm 1 mps 730 mmHg 94%
    06:00 +7°C° 0 mm 1 mps 730 mmHg 94%
    07:00 +7°C° 0 mm 2 mps 731 mmHg 92%
    08:00 +7°C° 0 mm 2 mps 731 mmHg 90%
    09:00 +8°C° 0 mm 2 mps 731 mmHg 87%
    10:00 +9°C° 0 mm 3 mps 732 mmHg 84%
    11:00 +10°C° 0 mm 3 mps 732 mmHg 81%
    12:00 +11°C° 0 mm 4 mps 732 mmHg 78%
    13:00 +12°C° 0.1 mm 4 mps 732 mmHg 76%
    14:00 +12°C° 0.1 mm 4 mps 731 mmHg 73%
    15:00 +12°C° 0.1 mm 4 mps 731 mmHg 71%
    16:00 +11°C° 0.1 mm 3 mps 731 mmHg 77%
    17:00 +10°C° 0.1 mm 3 mps 731 mmHg 82%
    18:00 +9°C° 0.1 mm 2 mps 731 mmHg 88%
    19:00 +8°C° 0 mm 2 mps 732 mmHg 90%
    20:00 +8°C° 0 mm 2 mps 732 mmHg 92%
    21:00 +8°C° 0 mm 2 mps 732 mmHg 93%
    22:00 +7°C° 0 mm 2 mps 732 mmHg 93%
    23:00 +7°C° 0 mm 2 mps 733 mmHg 93%

    24 January, Friday

    Time Temperature Precipitation Wind Pressure Humidity
    00:00 +7°C° 0 mm 2 mps 733 mmHg 93%
    01:00 +7°C° 0 mm 2 mps 732 mmHg 92%
    02:00 +7°C° 0 mm 2 mps 732 mmHg 90%
    03:00 +7°C° 0 mm 2 mps 732 mmHg 89%
    04:00 +7°C° 0 mm 2 mps 732 mmHg 88%
    05:00 +7°C° 0 mm 2 mps 732 mmHg 88%
    06:00 +7°C° 0 mm 2 mps 732 mmHg 87%
    07:00 +7°C° 0 mm 2 mps 733 mmHg 85%
    08:00 +8°C° 0 mm 2 mps 733 mmHg 84%
    09:00 +9°C° 0 mm 2 mps 733 mmHg 82%
    10:00 +10°C° 0 mm 2 mps 733 mmHg 79%
    11:00 +12°C° 0 mm 2 mps 733 mmHg 76%
    12:00 +13°C° 0 mm 2 mps 733 mmHg 72%
    13:00 +12°C° 0 mm 3 mps 733 mmHg 73%
    14:00 +13°C° 0 mm 3 mps 732 mmHg 73%
    15:00 +13°C° 0 mm 3 mps 732 mmHg 74%
    16:00 +12°C° 0 mm 3 mps 732 mmHg 80%
    17:00 +12°C° 0 mm 2 mps 732 mmHg 86%
    18:00 +10°C° 0 mm 2 mps 732 mmHg 92%
    19:00 +9°C° 0 mm 2 mps 732 mmHg 93%
    20:00 +8°C° 0 mm 2 mps 733 mmHg 94%
    21:00 +8°C° 0 mm 2 mps 733 mmHg 95%
    22:00 +8°C° 0 mm 2 mps 733 mmHg 94%
    23:00 +8°C° 0 mm 1 mps 733 mmHg 93%

    25 January, Saturday

    Time Temperature Precipitation Wind Pressure Humidity
    00:00 +8°C° 0 mm 1 mps 733 mmHg 91%
    01:00 +8°C° 0 mm 1 mps 732 mmHg 90%
    02:00 +8°C° 0 mm 1 mps 732 mmHg 88%
    03:00 +8°C° 0 mm 1 mps 732 mmHg 86%
    04:00 +7°C° 0 mm 2 mps 732 mmHg 84%
    05:00 +7°C° 0 mm 2 mps 732 mmHg 82%
    06:00 +7°C° 0 mm 2 mps 732 mmHg 80%
    07:00 +8°C° 0 mm 2 mps 732 mmHg 76%
    08:00 +10°C° 0 mm 1 mps 733 mmHg 72%
    09:00 +11°C° 0 mm 1 mps 733 mmHg 69%
    10:00 +12°C° 0 mm 1 mps 733 mmHg 63%
    11:00 +13°C° 0 mm 1 mps 733 mmHg 58%
    12:00 +14°C° 0 mm 1 mps 733 mmHg 52%
    13:00 +15°C° 0 mm 1 mps 733 mmHg 52%
    14:00 +15°C° 0 mm 2 mps 732 mmHg 53%
    15:00 +15°C° 0 mm 2 mps 732 mmHg 53%
    16:00 +14°C° 0 mm 2 mps 732 mmHg 60%
    17:00 +12°C° 0 mm 2 mps 732 mmHg 66%
    18:00 +10°C° 0 mm 2 mps 732 mmHg 72%
    19:00 +9°C° 0 mm 2 mps 732 mmHg 72%
    20:00 +9°C° 0 mm 2 mps 733 mmHg 71%
    21:00 +9°C° 0 mm 2 mps 733 mmHg 70%
    22:00 +9°C° 0 mm 2 mps 733 mmHg 68%
    23:00 +9°C° 0 mm 2 mps 733 mmHg 66%
    Show more